Location: Fatehalanka
(16.3139°N, 80.8379°E)
Time: 20:25:27
(UTC+00:00)

ATLAS 2A CENTAUR R/B - Pass Details

Date: 14 May 2026
Orbit: 274 x 12884 km, 26.9° (Epoch: 6 June)

Event Time Altitude Azimuth Distance (km) Brightness Sun altitude
Rises 14:34:24 0° 298° (WNW) 2,892 7.1 -21.7°
Reaches altitude 10° 14:37:27 10° 312° (NW) 1,389 4.9 -22.3°
Enters shadow 14:38:53 20° 337° (NNW) 794 3.2 -22.6°
